This is the latest recevied weather packets stored in our database for station/object KB3GVC-13. If no packets are shown the sender has not sent any weather packets the latest 10 day(s).
| Time | Temp. | Humidity | Pressure | Rain* | Wind** | Luminosity | Snow |
|---|---|---|---|---|---|---|---|
| 1777386399 | 15° C | 56% | 1022.9 hPa | 0 mm | - | - | - |
| 1777386096 | 15.56° C | 58% | 1022.9 hPa | 0 mm | - | - | - |
| 1777385792 | 15° C | 56% | 1022.8 hPa | 0 mm | - | - | - |
| 1777385490 | 14.44° C | 56% | 1022.9 hPa | 0 mm | - | - | - |
| 1777385187 | 14.44° C | 55% | 1022.8 hPa | 0 mm | - | - | - |
| 1777384882 | 15° C | 54% | 1022.9 hPa | 0 mm | - | - | - |
| 1777384581 | 15° C | 53% | 1022.8 hPa | 0 mm | - | - | - |
| 1777384280 | 15° C | 53% | 1023 hPa | 0 mm | - | - | - |
| 1777383975 | 15° C | 53% | 1023 hPa | 0 mm | - | - | - |
| 1777383672 | 15° C | 55% | 1023 hPa | 0 mm | - | - | - |
| 1777383369 | 15° C | 54% | 1023.2 hPa | 0 mm | - | - | - |
| 1777383065 | 14.44° C | 55% | 1023.3 hPa | 0 mm | - | - | - |
| 1777382762 | 14.44° C | 55% | 1023.2 hPa | 0 mm | - | - | - |
| 1777382457 | 14.44° C | 57% | 1023.2 hPa | 0 mm | - | - | - |
| 1777382153 | 14.44° C | 57% | 1023.4 hPa | 0 mm | - | - | - |
| 1777381850 | 13.89° C | 59% | 1023.4 hPa | 0 mm | - | - | - |
| 1777381549 | 13.89° C | 59% | 1023.2 hPa | 0 mm | - | - | - |
| 1777381244 | 13.33° C | 60% | 1023.5 hPa | 0 mm | - | - | - |
| 1777380943 | 13.33° C | 61% | 1023.2 hPa | 0 mm | - | - | - |
| 1777380639 | 13.33° C | 63% | 1023.3 hPa | 0 mm | - | - | - |
| 1777380335 | 12.78° C | 64% | 1023.3 hPa | 0 mm | - | - | - |
| 1777380032 | 12.22° C | 69% | 1023.3 hPa | 0 mm | - | - | - |
| 1777379728 | 12.22° C | 70% | 1023.5 hPa | 0 mm | - | - | - |
| 1777379423 | 11.67° C | 75% | 1023.4 hPa | 0 mm | - | - | - |
| 1777379119 | 11.11° C | 77% | 1023.4 hPa | 0 mm | - | - | - |
* Rain latest hour (hover to see other rain measurements)
** Current wind speed in m/s (hover to see current wind gust speed)